Flag for Canada Weather past 2 weeks in Yarmouth County, Nova Scotia, Canada

Now
52 °F

Passing clouds.


Feels Like: 50 °F
Forecast: 51 / 64 °F
Wind: 6 mph from South

Location: Yarmouth

Current Time: Sep 17, 2014 at 6:40:59 AM

Latest Report: Sep 17, 2014 at 6:00 AM


Visibility: 15 mi

Pressure: 29.96 "Hg

Humidity: 100%

Dew point: 52 °F

Location of Yarmouth CountyLocation

Historic Weather in Yarmouth County — Graph

°F

Yarmouth County temperature yesterday

Maximum temperature yesterday: 63 °F (at 1:00 PM)
Minimum temperature yesterday: 43 °F (at 7:00 AM)
Average temperature yesterday: 52 °F

Past Weeks' High & Low Weather Summary

 TemperatureHumidityPressure
High73 °F (Sep 5, 1:00 PM)100% (Sep 2, 5:00 AM)30.44 "Hg (Sep 2, 5:00 AM)
Low43 °F (Sep 16, 7:00 AM)25% (Sep 8, 5:00 PM)29.75 "Hg (Sep 3, 6:00 AM)
Average60 °F85%30.07 "Hg
* Reported Sep 2 5:00 AM — Sep 17 5:00 AM, Yarmouth County, Weather by CustomWeather, © 2014

Note: Actual official high and low records may vary slightly from our data, if they occured in-between our weather recording intervals... More about our weather records

Advertising

Yarmouth County weather history for previous 24 hours

 ConditionsComfort  
Time TempWeatherWind HumidityBarometerVisibility
5:00 AM
Sep 17
52 °FPassing clouds.7 mph94%29.96 "Hg15 mi
4:00 AM50 °FPassing clouds.5 mph94%29.96 "Hg15 mi
3:00 AM52 °FPassing clouds.No wind94%29.98 "Hg15 mi
2:00 AM52 °FPassing clouds.3 mph88%29.98 "Hg15 mi
1:00 AM52 °FOvercast.5 mph94%29.98 "Hg15 mi
12:00 AM52 °FOvercast.5 mph94%29.99 "Hg15 mi
11:00 PM
Sep 16
52 °FOvercast.6 mph88%30.00 "Hg15 mi
10:00 PM52 °FPassing clouds.6 mph82%30.00 "Hg15 mi
9:00 PM52 °FOvercast.6 mph77%30.00 "Hg15 mi
8:00 PM52 °FScattered clouds.7 mph72%30.00 "Hg15 mi
7:00 PM55 °FScattered clouds.6 mph63%29.98 "Hg15 mi
6:00 PM59 °FBroken clouds.5 mph51%29.99 "Hg15 mi
5:00 PM57 °FBroken clouds.6 mph59%29.99 "Hg15 mi
4:00 PM59 °FBroken clouds.10 mph59%30.01 "Hg15 mi
3:00 PM59 °FBroken clouds.10 mph63%30.02 "Hg15 mi
2:00 PM61 °FBroken clouds.9 mph48%30.03 "Hg15 mi
1:00 PM63 °FBroken clouds.8 mph56%30.03 "Hg15 mi
12:00 PM59 °FBroken clouds.3 mph51%30.06 "Hg15 mi
11:00 AM57 °FCloudy.6 mph67%30.07 "Hg15 mi
10:00 AM55 °FMostly cloudy.5 mph82%30.08 "Hg15 mi
9:00 AM52 °FBroken clouds.2 mph94%30.07 "Hg12 mi
8:00 AM48 °FPartly cloudy.3 mph94%30.08 "Hg12 mi
7:00 AM43 °FPassing clouds.No wind100%30.08 "Hg12 mi
6:00 AM46 °FClear.3 mph87%30.09 "Hg15 mi
Weather by CustomWeather, © 2014

See weather overviewHow to use our weather pages